Location: Grand Lay
(47.3253°N, 0.9468°E)
Time: 17:51:30
(UTC+00:00)

Gbstr 26 Del rocket - Visible Passes

Search period start: 11 April 2026 00:00
Search period end: 21 April 2026 00:00
Orbit: 489 x 1216 km, 51.8° (Epoch: 11 April)

Date Brightness Start Highest point End Pass type
(mag) Time Alt. Az. Time Alt. Az. Time Alt. Az.
11 Apr 4.3 02:09:24 32° ENE 02:09:24 32° ENE 02:11:30 10° ENE visible
11 Apr 3.6 03:51:23 14° WNW 03:54:16 41° N 03:57:54 10° ENE visible
12 Apr 4.5 01:57:02 28° ENE 01:57:02 28° ENE 01:58:53 10° ENE visible
12 Apr 3.7 03:39:02 16° WNW 03:41:41 41° N 03:45:18 10° ENE visible
13 Apr 4.8 01:44:42 24° ENE 01:44:42 24° ENE 01:46:16 10° ENE visible
13 Apr 3.7 03:26:40 18° WNW 03:29:06 41° N 03:32:42 10° ENE visible
14 Apr 5.0 01:32:19 21° ENE 01:32:19 21° ENE 01:33:39 10° ENE visible
14 Apr 3.7 03:14:18 20° WNW 03:16:30 41° N 03:20:05 10° ENE visible
15 Apr 5.2 01:19:59 18° ENE 01:19:59 18° ENE 01:21:02 10° ENE visible
15 Apr 3.7 03:01:57 22° NW 03:03:55 41° N 03:07:30 10° ENE visible
16 Apr 5.4 01:07:39 15° ENE 01:07:39 15° ENE 01:08:24 10° ENE visible
16 Apr 3.7 02:49:37 25° NW 02:51:19 42° N 02:54:54 10° ENE visible
17 Apr 5.5 00:55:20 13° ENE 00:55:20 13° ENE 00:55:47 10° ENE visible
17 Apr 3.6 02:37:18 29° NW 02:38:43 43° N 02:42:18 10° E visible
17 Apr 2.6 04:21:24 10° WNW 04:25:07 77° SSW 04:29:00 10° ESE visible
18 Apr 5.7 00:43:04 11° ENE 00:43:04 11° ENE 00:43:10 10° ENE visible
18 Apr 3.6 02:25:03 34° NW 02:26:07 44° N 02:29:43 10° E visible
18 Apr 2.6 04:08:47 10° WNW 04:12:30 70° SSW 04:16:19 10° SE visible
19 Apr 3.6 02:12:52 41° NNW 02:13:31 46° N 02:17:06 10° E visible
19 Apr 2.6 03:56:09 10° WNW 03:59:50 63° SSW 04:03:38 10° SE visible
20 Apr 3.5 02:00:47 47° N 02:00:55 47° N 02:04:31 10° E visible
20 Apr 2.6 03:43:31 10° WNW 03:47:11 56° SSW 03:50:55 10° SE visible
